User: anonymous   Login
Location: Unspecified
(0.0000°N, 0.0000°E)
Time: 08:38:14
(UTC+00:00)
Language:

Kosmos-2180 - Orbit

View from above orbital plane
View from above orbital plane
View from above satellite
View from above satellite

Ground track
Ground track

The orbit data is extracted from the following two-line orbital elements,

1 21875U 92008A   18267.68513318 +.00000038 +00000-0 +25047-4 0  9994
2 21875 082.9283 152.8013 0036242 266.4460 121.6181 13.73733206333286
Epoch (UTC): 24 September 2018 16:26:35
Eccentricity: 0.0036242
inclination: 82.9283°
perigee height: 959 km
apogee height: 1013 km
right ascension of ascending node: 152.8013°
argument of perigee: 266.4460°
revolutions per day: 13.73733206
mean anomaly at epoch: 121.6181°
orbit number at epoch: 33328

The dashed part of the orbit path shows where the satellite is in the earth's shadow,  

DLR